Regional Weather Roundup
Issued by NWS

Home | Current Version | Previous Version | Graphics & Text | Print | Product List | Glossary On
Versions: 1 2 3 4 5 6 7 8 9 10 11 12 13 14 15 16 17 18 19 20 21 22 23 24 25 26 27 28 29 30 31 32 33 34 35 36 37 38 39 40 41 42 43 44 45 46 47 48 49 50
000
ASUS45 KBOU 252310
RWRCO

WEATHER ROUNDUP FOR COLORADO
NATIONAL WEATHER SERVICE PUEBLO CO
500 PM MDT WED APR 25 2018

NOTE: "FAIR" INDICATES FEW OR NO CLOUDS BELOW 12000 FEET WITH NO
SIGNIFICANT WEATHER AND/OR OBSTRUCTIONS TO VISIBILITY.

COZ001>005-013-030-031-260000-
...NORTHWEST COLORADO...

CITY           SKY/WX    TMP DP  RH WIND       PRES   REMARKS
CRAIG          SUNNY     65  26  23 W12       30.14F
HAYDEN         SUNNY     60  23  24 VRB6      30.16F
MEEKER         SUNNY     66  15  14 NW9       30.14F
RABBIT EARS PA NOT AVBL
STEAMBOAT SPGS FAIR      61  17  18 W5        30.16F
WALDEN         FAIR      59  -4   7 W15G23    30.20F
$$

COZ006>008-011-260000-
...WEST CENTRAL VALLEYS...

CITY           SKY/WX    TMP DP  RH WIND       PRES   REMARKS
GRAND JUNCTION SUNNY     70   6   8 NW15      30.10F
MONTROSE       SUNNY     68  -4   5 N8        30.14F
EAGLE          SUNNY     68 -11   4 SW17      30.14F
RIFLE          SUNNY     70  11  10 W15       30.09F
DELTA          NOT AVBL
NUCLA          FAIR      70  -4   5 NW12G18   30.17F
$$

COZ017>023-064>068-260000-
...SOUTHWEST COLORADO...

CITY           SKY/WX    TMP DP  RH WIND       PRES   REMARKS
DURANGO        SUNNY     69   8   9 W6        30.14F
CORTEZ         SUNNY     72  -7   4 W13       30.14F
PAGOSA SPRINGS FAIR      67   2   7 S5        30.19S
TELLURIDE      SUNNY     59   7  12 W9G22     30.28F
WOLF CREEK PAS SUNNY     45   3  18 S15       30.45S
$$

COZ009-010-012-014-032>034-037-058>063-260000-
...CENTRAL COLORADO...

CITY           SKY/WX    TMP DP  RH WIND       PRES   REMARKS
ASPEN          SUNNY     63   4   9 N9G17     30.17F
BUENA VISTA    FAIR      62   3   9 E3        30.17F
COPPER MTN     NOT AVBL
BERTHOUD PASS  FAIR      32  23  69 NW18      30.38F WCI  20
COTTONWOOD PAS SUNNY     61   3  10 SE7       30.27F
GUNNISON       SUNNY     65  -4   6 W15G23    30.16
KREMMLING      SUNNY     72  -2   5 SW7G17    30.17F
LEADVILLE      SUNNY     52  -3  10 W7G21     30.26F
MONARCH PASS   SUNNY     45  -8  11 W30G36    30.48F
SALIDA         FAIR      68  -1   6 SE7       30.21F
SUNLIGHT       SUNNY     45  10  24 W9G18     30.37F
WILKERSON PASS SUNNY     46  10  23 SW9       30.37F
$$

COZ069>075-260000-
...SAN LUIS VALLEY/SANGRE DE CRISTO MOUNTAINS...

CITY           SKY/WX    TMP DP  RH WIND       PRES   REMARKS
ALAMOSA        SUNNY     63  -5   6 SE8       30.17F
DEL NORTE      FAIR      63  -1   7 SE8G18    30.19F
LA VETA PASS   SUNNY     46  21  36 N9        30.42F
SAGUACHE       NOT AVBL
$$

COZ035-036-038>040-260000-
...NORTHERN COLORADO FRONT RANGE...

CITY           SKY/WX    TMP DP  RH WIND       PRES   REMARKS
DENVER INTL AP MOSUNNY   65  15  14 E6        30.08F
DMNS CITY PARK NOT AVBL
AURORA         SUNNY     66  13  13 S5        30.09F
FRONT RANGE AP NOT AVBL
ERIE MUNI ARPT FAIR      66  14  13 CALM      30.12F
BOULDER MUN AP FAIR      66  21  18 SE6       30.07F
CENTENNIAL     MOSUNNY   64  21  19 SE8       30.09F
BROOMFIELD     SUNNY     64  18  16 CALM      30.09F
LOVELAND       SUNNY     66  25  21 S9        30.07F
LONGMONT       FAIR      69  23  18 E5        30.08F
$$

COZ041-046-047-076>085-087-088-260000-
...PIKES PEAK/PALMER DIVIDE AND SOUTHERN FOOTHILLS...

CITY           SKY/WX    TMP DP  RH WIND       PRES   REMARKS
COLO. SPRINGS  MOSUNNY   62  29  28 S7        30.15F
A. F. ACADEMY  SUNNY     62  25  24 S8        30.14F
SCHRIEVER AFB  NOT AVBL
CHEYENNE MTN   NOT AVBL
ELLICOTT         N/A    N/A N/A N/A SW9       30.14F
FALCON         FAIR      63  15  15 S5        30.18S
FORT CARSON    NOT AVBL
LIMON          SUNNY     63  11  13 VRB5      30.12F
MONUMENT HILL  SUNNY     59   9  13 NE5       30.17F
CANON CITY     FAIR      68  27  21 E10G18    30.09F
WALSENBURG     FAIR      66  19  16 E9        30.15F
TRINIDAD       SUNNY     66   9  10 MISG      30.15F
$$

COZ042>045-048>051-090-091-260000-
...NORTHEAST COLORADO...

CITY           SKY/WX    TMP DP  RH WIND       PRES   REMARKS
GREELEY ARPT   SUNNY     68  20  16 SE8       30.06F
AKRON          SUNNY     61  24  24 CALM      30.09F
BURLINGTON     SUNNY     60  32  34 N7        30.12F
WRAY           FAIR      63  30  29 SW6       30.09F
YUMA           NOT AVBL
STERLING       NOT AVBL
HOLYOKE        FAIR      64  28  25 W6        30.08F
FORT MORGAN    FAIR      66  11  11 SW7       30.07F
$$

COZ086-089-092>099-260000-
...SOUTHEAST COLORADO...

CITY           SKY/WX    TMP DP  RH WIND       PRES   REMARKS
PUEBLO         SUNNY     66  24  20 E12       30.10F
LA JUNTA       SUNNY     63  32  31 MISG      30.13F
LAMAR          SUNNY     65  29  25 VRB3      30.10F
SPRINGFIELD      N/A     59  30  33 N13G20    30.15F
$$




USA.gov is the U.S. government's official web portal to all federal, state and local government web resources and services.